Grand Marais, MN

3:33 AM CST on November 17, 2019 (GMT -0600)
Grand Marais

Weather History for KGNA - September, 2019

Change the Weather History Date:

Monday, September 30, 2019

  Actual Average (WUND) Record (WUND)
Temperature  
Mean Temperature 54 °F -  
Max Temperature 57 °F - - (-1)
Min Temperature 52 °F - - (-1)
Degree Days  
Heating Degree Days 10    
Growing Degree Days 4 (Base 50)    
Moisture  
Dew Point 54 °F    
Average Humidity 97    
Maximum Humidity 100    
Minimum Humidity 93    
Precipitation  
Precipitation 0.79 in - - ()
Sea Level Pressure  
Sea Level Pressure 29.84 in    
Wind  
Wind Speed 11 mph (ENE)    
Max Wind Speed 15 mph    
Max Gust Speed 29 mph    
Averages and records for this station are not official NWS values.
T = Trace of Precipitation, MM = Missing Value Source: NWS Daily Summary

Daily Weather History Graph

Daily Weather History Graph

Search for Another Location

Airport or City:

Astronomy

Sep. 30, 2019 Rise Set
Actual Time 6:58 AM CDT 6:43 PM CDT
Civil Twilight 6:28 AM CDT 7:13 PM CDT
Nautical Twilight 5:52 AM CDT 7:49 PM CDT
Astronomical Twilight 5:15 AM CDT 8:26 PM CDT
Moon 9:09 AM CDT (9/30) 8:09 PM CDT (9/30)
Length of Visible Light 12h 45m
Length of Day
11h 44m
Waxing Crescent, 6% of the Moon is Illuminated
Sep 30
Waxing Crescent
Oct 5
First Quarter
Oct 13
Full
Oct 21
Last Quarter
Oct 27
New

Hourly Weather History & Observations

Time (CDT) Temp. Dew Point Humidity Pressure Visibility Wind Dir Wind Speed Gust Speed Precip Events Conditions
12:56 AM 52.0 °F 50.0 °F 93% 30.09 in - ENE 15.0 mph 27.6 mph 0.01 in   Unknown
2:56 AM 53.1 °F 52.0 °F 96% 30.02 in - ENE 15.0 mph 25.3 mph 0.02 in   Unknown
3:56 AM 53.1 °F 52.0 °F 96% 30.00 in - NE 9.2 mph 17.3 mph N/A   Unknown
4:56 AM 53.1 °F 52.0 °F 96% 30.00 in - NE 10.4 mph 16.1 mph 0.09 in   Unknown
5:56 AM 53.1 °F 51.1 °F 93% 29.95 in - ENE 12.7 mph 18.4 mph 0.08 in   Unknown
6:56 AM 53.1 °F 52.0 °F 96% 29.94 in - NE 6.9 mph - 0.06 in   Unknown
7:56 AM 53.1 °F 52.0 °F 96% 29.91 in - NE 8.1 mph - 0.11 in   Unknown
8:56 AM 54.0 °F 53.1 °F 97% 29.91 in - NE 8.1 mph - 0.10 in   Unknown
9:56 AM 54.0 °F 53.1 °F 97% 29.83 in - ENE 13.8 mph 28.8 mph 0.06 in   Unknown
10:56 AM 55.0 °F 55.0 °F 100% 29.86 in - NE 8.1 mph - 0.01 in   Unknown
11:56 AM 55.9 °F 55.0 °F 97% 29.84 in - ENE 8.1 mph - N/A   Unknown
12:56 PM 57.0 °F 55.9 °F 96% 29.80 in - ENE 9.2 mph - 0.01 in   Unknown
1:56 PM 55.9 °F 55.0 °F 97% 29.77 in - ENE 11.5 mph - N/A   Unknown
2:56 PM 57.0 °F 55.9 °F 96% 29.76 in - East 13.8 mph - N/A   Unknown
3:56 PM 55.9 °F 55.0 °F 97% 29.75 in - ENE 12.7 mph - N/A   Unknown
4:56 PM 55.0 °F 55.0 °F 100% 29.76 in - ENE 12.7 mph - 0.02 in   Unknown
5:56 PM 57.0 °F 55.9 °F 96% 29.75 in - ENE 10.4 mph 18.4 mph 0.01 in   Unknown
6:56 PM 55.0 °F 55.0 °F 100% 29.75 in - NE 9.2 mph - 0.01 in   Unknown
7:56 PM 55.0 °F 55.0 °F 100% 29.73 in - ENE 11.5 mph - 0.01 in   Unknown
8:56 PM 55.9 °F 55.0 °F 97% 29.73 in - ENE 8.1 mph - 0.19 in   Unknown
9:56 PM 57.0 °F 55.9 °F 96% 29.73 in - NE 5.8 mph - N/A   Unknown
10:56 PM 55.9 °F 55.0 °F 97% 29.73 in - Calm Calm - N/A   Unknown
11:56 PM 55.0 °F 55.0 °F 100% 29.73 in - SW 9.2 mph - N/A   Unknown